ZHONGXING-6C

Last updated on Mon Oct 14 2024 00:02:41 GMT+0000 (Coordinated Universal Time)

1 44067U 19012A 24287.53884831 -.00000336 00000+0 00000+0 0 9998 2 44067 0.0129 90.6516 0002333 6.6372 249.7027 1.00273495 20607
UTC large
Height (km)
Speed (km/s)
/
Latitude / Longitude
Inclination (degrees)
Orbital Period (minutes)
Azimuth
Elevation
Range (km)
Doppler Factor

Next 0 passes for location: London (51.5072 / 0.1276)

Sorry there are no passes over London.